Flag for Ireland Weather past 2 weeks in Cork, Ireland

Now
48 °F

Fog.


Feels Like: 46 °F
Forecast: 46 / 60 °F
Wind: 5 mph from Southwest

Location: Cork Airport


UV Index: 3 (Moderate)

Visibility: 9 mi


Pressure: 30.20 "Hg

Humidity: 94%

Dew point: 46 °F

Location of CorkLocation

Historic Weather in Cork

°F

Cork temperature yesterday

Maximum temperature yesterday: 54 °F (at 12:00 PM)
Minimum temperature yesterday: 42 °F (at 3:00 AM)
Average temperature yesterday: 49 °F

Past Weeks' High & Low Weather Summary

 TemperatureHumidityPressure
High56 °F (Apr 16, 4:00 PM)100% (Apr 2, 11:00 AM)30.38 "Hg (Apr 2, 11:00 AM)
Low38 °F (Apr 8, 2:00 AM)55% (Apr 8, 4:00 PM)29.38 "Hg (Apr 2, 11:00 AM)
Average48 °F86%29.97 "Hg
* Reported Apr 1 9:00 PM — Apr 16 9:00 PM, Cork, Weather by CustomWeather, © 2014

Note: Actual official high and low records may vary slightly from our data, if they occured in-between our weather recording intervals... More about our weather records

Advertising

Historic Weather Conditions — Data for Previous 24 hours

 ConditionsComfort  
Time TempWeatherWind HumidityBarometerVisibility
9:00 PM
Apr 16
48 °FFog.5 mph94%30.20 "Hg9 mi
8:00 PM50 °FPassing clouds.5 mph90%30.19 "Hg10 mi
7:00 PM51 °FScattered clouds.5 mph89%30.18 "Hg11 mi
6:00 PM53 °FScattered clouds.7 mph83%30.19 "Hg12 mi
5:00 PM54 °FScattered clouds.7 mph80%30.19 "Hg12 mi
4:00 PM56 °FPartly sunny.7 mph79%30.19 "Hg12 mi
3:00 PM55 °FPartly sunny.8 mph82%30.21 "Hg12 mi
2:00 PM56 °FScattered clouds.7 mph80%30.21 "Hg16 mi
1:00 PM55 °FPartly sunny.7 mph79%30.21 "Hg16 mi
12:00 PM53 °FLow clouds.7 mph87%30.22 "Hg11 mi
11:00 AM51 °FFog.6 mph92%30.22 "Hg7 mi
10:00 AM49 °FFog.6 mph95%30.22 "Hg6 mi
9:00 AM48 °FFog.6 mph96%30.22 "Hg6 mi
8:00 AM47 °FLow clouds.6 mph96%30.22 "Hg6 mi
7:00 AM47 °FLow clouds.7 mph96%30.22 "Hg12 mi
6:00 AM46 °FLow clouds.6 mph96%30.22 "Hg12 mi
5:00 AM46 °FOvercast.6 mph95%30.24 "Hg25 mi
4:00 AM46 °FOvercast.6 mph93%30.25 "Hg25 mi
3:00 AM45 °FOvercast.6 mph92%30.25 "Hg25 mi
2:00 AM45 °FOvercast.7 mph89%30.26 "Hg25 mi
1:00 AM46 °FOvercast.6 mph88%30.26 "Hg25 mi
Weather by CustomWeather, © 2014

See weather overview